Safford, AZ

11:10 AM MST on November 20, 2017 (GMT -0700)
Safford Regional

Weather History for KSAD - October, 2012

Change the Weather History Date:

Monday, October 29, 2012

  Actual Average Record
Temperature  
Mean Temperature 63 °F -  
Max Temperature 84 °F 76 °F 89 °F (1987)
Min Temperature 42 °F 42 °F 25 °F (1991)
Degree Days  
Heating Degree Days 2    
Growing Degree Days 13 (Base 50)    
Moisture  
Dew Point 21 °F    
Average Humidity 22    
Maximum Humidity 40    
Minimum Humidity 10    
Precipitation  
Precipitation 0.00 in - - ()
Sea Level Pressure  
Sea Level Pressure 30.03 in    
Wind  
Wind Speed 3 mph (NW)    
Max Wind Speed 14 mph    
Max Gust Speed 20 mph    
Visibility 10 miles    
Events      
Averages and records for this station are not official NWS values.
T = Trace of Precipitation, MM = Missing Value Source: NWS Daily Summary

Daily Weather History Graph

Daily Weather History Graph

Search for Another Location

Airport or City:

Trip Planner

Search our weather history database for the weather conditions in past years. The results will help you decide how hot, cold, wet, or windy it might be!

Date:

Astronomy

Oct. 29, 2012 Rise Set
Actual Time 6:34 AM MST 5:29 PM MST
Civil Twilight 6:08 AM MST 5:55 PM MST
Nautical Twilight 5:39 AM MST 6:24 PM MST
Astronomical Twilight 5:11 AM MST 6:52 PM MST
Moon 5:26 PM MST (10/29) 6:26 AM MST (10/29)
Length of Visible Light 11h 46m
Length of Day
10h 55m
Full, 100% of the Moon is Illuminated
Oct 29
Full
Oct 29
Full
Nov 6
Last Quarter
Nov 13
New
Nov 20
First Quarter

Hourly Weather History & Observations

Time (MST) Temp. Windchill Dew Point Humidity Pressure Visibility Wind Dir Wind Speed Gust Speed Precip Events Conditions
12:51 AM 50.0 °F - 19.0 °F 29% 30.02 in 10.0 mi Calm Calm - N/A   Clear
1:51 AM 50.0 °F - 21.0 °F 32% 30.03 in 10.0 mi Calm Calm - N/A   Clear
2:51 AM 46.9 °F - 19.0 °F 33% 30.03 in 10.0 mi ESE 3.5 mph - N/A   Clear
3:51 AM 51.1 °F - 19.9 °F 29% 30.03 in 10.0 mi Calm Calm - N/A   Clear
4:51 AM 45.0 °F - 19.0 °F 36% 30.05 in 10.0 mi Calm Calm - N/A   Clear
5:51 AM 45.0 °F - 19.0 °F 36% 30.07 in 10.0 mi Calm Calm - N/A   Clear
6:51 AM 42.1 °F 40.2 °F 19.0 °F 40% 30.11 in 10.0 mi East 3.5 mph - N/A   Clear
7:51 AM 53.1 °F - 21.0 °F 29% 30.13 in 10.0 mi SE 4.6 mph - N/A   Clear
8:51 AM 62.1 °F - 19.9 °F 20% 30.12 in 10.0 mi East 4.6 mph - N/A   Clear
9:51 AM 69.1 °F - 18.0 °F 14% 30.12 in 10.0 mi SE 6.9 mph - N/A   Clear
10:51 AM 71.1 °F - 19.0 °F 14% 30.10 in 10.0 mi Calm Calm - N/A   Clear
11:51 AM 75.9 °F - 21.9 °F 13% 30.06 in 10.0 mi Calm Calm - N/A   Clear
12:51 PM 80.1 °F - 23.0 °F 12% 30.02 in 10.0 mi West 4.6 mph - N/A   Clear
1:51 PM 82.0 °F - 21.9 °F 11% 29.99 in 10.0 mi WSW 8.1 mph - N/A   Clear
2:51 PM 84.9 °F - 21.9 °F 10% 29.96 in 10.0 mi WNW 13.8 mph 19.6 mph N/A   Clear
3:51 PM 84.9 °F - 23.0 °F 10% 29.94 in 10.0 mi NW 13.8 mph - N/A   Clear
4:51 PM 82.0 °F - 23.0 °F 11% 29.95 in 10.0 mi NW 13.8 mph - N/A   Clear
5:51 PM 75.0 °F - 24.1 °F 15% 29.97 in 10.0 mi NW 8.1 mph - N/A   Clear
6:51 PM 70.0 °F - 24.1 °F 18% 30.00 in 10.0 mi WNW 9.2 mph - N/A   Clear
7:51 PM 68.0 °F - 21.0 °F 17% 29.99 in 10.0 mi NNW 9.2 mph - N/A   Clear
8:51 PM 66.0 °F - 21.9 °F 19% 30.00 in 10.0 mi NNW 9.2 mph - N/A   Clear
9:51 PM 64.9 °F - 24.1 °F 21% 30.00 in 10.0 mi NW 4.6 mph - N/A   Clear
10:51 PM 61.0 °F - 24.1 °F 24% 30.00 in 10.0 mi Calm Calm - N/A   Clear
11:51 PM 55.0 °F - 21.9 °F 28% 30.00 in 10.0 mi East 5.8 mph - N/A   Clear